FW9399 Weather Reports


time (UTC)temp
C
wind
direction
speed
KPH
gust
KPH
rain 1hr
cm
rain 24hr
cm
rain mn
cm
humidity
%
barometer
mb
20260504005048 14 0.0 0.0 0.00 0.03 0.00 72 1012.6
20260504004117 14 0.0 0.0 0.00 0.03 0.00 72 1012.6
20260504003046 14 0.0 0.0 0.00 0.03 0.00 71 1012.8
20260504002046 15 0.0 0.0 0.00 0.03 0.00 71 1012.6
20260504001155 15 0.0 0.0 0.00 0.03 0.00 70 1012.8
20260504000044 15 0.0 0.0 0.00 0.03 0.00 70 1012.9
20260503235103 15 0.0 0.0 0.00 0.03 0.00 70 1013.0
20260503234042 15 114 3.2 6.4 0.00 0.03 0.00 70 1013.1
20260503233042 15 0.0 0.0 0.00 0.03 0.00 70 1013.1
20260503232111 15 113 1.6 4.8 0.00 0.03 0.00 70 1013.3
20260503231040 15 51 3.2 6.4 0.00 0.03 0.00 71 1013.5
20260503230040 15 358 3.2 6.4 0.00 0.03 0.00 71 1013.5
20260503225149 15 340 3.2 4.8 0.00 0.03 0.00 71 1013.5
20260503224058 15 332 1.6 6.4 0.00 0.03 0.00 71 1013.6
20260503223057 15 342 3.2 8.0 0.00 0.03 0.00 70 1013.5
20260503222107 15 8 3.2 6.4 0.00 0.03 0.00 69 1013.5
20260503221116 15 47 1.6 4.8 0.00 0.03 0.00 69 1013.5
20260503220055 15 0.0 0.0 0.00 0.03 0.00 70 1013.5
20260503215035 15 0.0 0.0 0.00 0.03 0.03 70 1013.5
20260503214204 15 0.0 0.0 0.00 0.03 0.03 69 1013.3
20260503213033 15 0.0 0.0 0.00 0.03 0.03 69 1013.3
20260503212032 15 0.0 0.0 0.00 0.03 0.03 68 1013.3
20260503211032 15 0.0 0.0 0.00 0.03 0.03 67 1013.3
20260503210331 15 0.0 0.0 0.00 0.03 0.03 67 1013.2
20260503205150 15 0.0 0.0 0.00 0.03 0.03 67 1013.2
20260503204150 15 357 3.2 6.4 0.00 0.03 0.03 67 1013.0
20260503203059 15 350 4.8 11.3 0.03 0.03 0.03 69 1012.8
20260503202029 15 1 4.8 11.3 0.03 0.03 0.03 69 1012.6
20260503201058 15 71 6.4 12.9 0.03 0.03 0.03 70 1012.6
20260503200027 15 44 6.4 12.9 0.03 0.03 0.03 70 1012.5
20260503195026 15 103 4.8 22.5 0.03 0.03 0.03 71 1012.5
20260503194135 15 35 6.4 17.7 0.03 0.03 0.03 71 1012.5
20260503193055 15 37 9.7 17.7 0.00 0.00 0.00 69 1012.5
20260503192114 16 32 8.0 25.7 0.00 0.00 0.00 68 1012.3
20260503191023 16 125 8.0 16.1 0.00 0.00 0.00 66 1012.4
20260503190042 16 164 3.2 11.3 0.00 0.00 0.00 66 1012.3
20260503185022 16 115 9.7 22.5 0.00 0.00 0.00 66 1012.2
20260503184051 16 98 9.7 19.3 0.00 0.00 0.00 67 1012.3
20260503183050 16 144 14.5 22.5 0.00 0.00 0.00 67 1012.2
20260503182050 16 124 6.4 24.1 0.00 0.00 0.00 69 1012.1
20260503181019 16 108 8.0 22.5 0.00 0.00 0.00 71 1012.1
20260503180018 16 101 6.4 11.3 0.00 0.00 0.00 72 1012.3
20260503175108 16 110 4.8 11.3 0.00 0.00 0.00 72 1012.7
20260503174127 16 141 4.8 12.9 0.00 0.00 0.00 70 1012.8
20260503173046 17 344 4.8 8.0 0.00 0.00 0.00 67 1013.2
20260503172045 17 122 9.7 19.3 0.00 0.00 0.00 64 1013.2
20260503171045 17 129 9.7 33.8 0.00 0.00 0.00 64 1013.1
20260503170104 17 135 8.0 30.6 0.00 0.00 0.00 63 1013.0
20260503131027 23 141 8.0 25.7 0.00 0.00 0.00 55 1014.5
20260503120112 23 79 11.3 25.7 0.00 0.00 0.00 56 1015.0
20260503081035 18 90 3.2 4.8 0.00 0.00 0.00 64 1015.6
20260503072032 17 113 4.8 8.0 0.00 0.00 0.00 68 1015.4
20260503071101 16 161 3.2 4.8 0.00 0.00 0.00 68 1015.4
20260503055055 15 110 6.4 12.9 0.00 0.00 0.00 67 1014.9
20260503054025 15 100 3.2 6.4 0.00 0.00 0.00 67 1014.8
20260503053114 15 98 3.2 6.4 0.00 0.00 0.00 67 1014.7
20260503052053 15 90 4.8 11.3 0.00 0.00 0.00 68 1014.8
20260503051022 15 99 4.8 11.3 0.00 0.00 0.00 68 1015.0
20260503050052 15 57 4.8 11.3 0.00 0.00 0.00 68 1014.6
20260503045021 15 96 3.2 8.0 0.00 0.00 0.00 68 1014.7
20260503044050 15 123 4.8 8.0 0.00 0.00 0.00 68 1014.8
20260503043050 15 132 4.8 12.9 0.00 0.00 0.00 68 1014.7
20260503042049 15 103 4.8 6.4 0.00 0.00 0.00 68 1014.8
20260503041047 15 152 3.2 6.4 0.00 0.00 0.00 68 1014.7
20260503040017 15 114 3.2 6.4 0.00 0.00 0.00 68 1014.8
20260503035126 15 130 1.6 4.8 0.00 0.00 0.00 69 1014.8
20260503034045 15 90 3.2 8.0 0.00 0.00 0.00 69 1014.9
20260503033105 15 0 3.2 4.8 0.00 0.00 0.00 69 1015.0
20260503032104 15 18 1.6 6.4 0.00 0.00 0.00 69 1015.2
20260503031043 15 3 3.2 8.0 0.00 0.00 0.00 68 1015.2
20260503030043 15 353 3.2 6.4 0.00 0.00 0.00 68 1015.3
20260503025042 15 27 1.6 4.8 0.00 0.00 0.00 68 1015.4
20260503024041 15 27 1.6 4.8 0.00 0.00 0.00 67 1015.2
20260503023041 15 40 1.6 8.0 0.00 0.00 0.00 67 1015.0
20260503022100 15 120 3.2 8.0 0.00 0.00 0.00 67 1015.1
20260503021109 15 113 3.2 6.4 0.00 0.00 0.00 68 1015.2
20260503020038 15 103 3.2 4.8 0.00 0.00 0.00 68 1015.2
20260503015021 15 158 1.6 6.4 0.00 0.00 0.00 68 1015.3
20260503014020 15 338 0.0 1.6 0.00 0.00 0.00 67 1015.5
20260503013049 15 15 1.6 4.8 0.00 0.00 0.00 67 1015.3
20260503012019 15 68 0.0 6.4 0.00 0.00 0.00 67 1015.6
20260503011048 15 48 3.2 12.9 0.00 0.00 0.00 67 1015.5
20260503010047 15 12 3.2 6.4 0.00 0.00 0.00 68 1015.8